Regional Weather Roundup
Issued by NWS Kansas City/Pleasant Hill, MO

Home | Current Version | Previous Version | Graphics & Text | Print | Product List | Glossary Off
Versions: 1 2 3 4 5 6 7 8 9 10 11 12 13 14 15 16 17 18 19 20 21 22 23 24 25 26 27 28

000
ASUS43 KEAX 300510
RWREAX

WEATHER ROUNDUP FOR EASTERN KANSAS AND NORTHWEST MISSOURI
NATIONAL WEATHER SERVICE KANSAS CITY/PLEASANT HILL MO
1200 AM CDT SAT APR 30 2016

KSZ040-057-103>105-MOZ028-029-037-043-300600-
...KANSAS CITY METROPOLITAN AREA...

CITY           SKY/WX    TMP DP  RH WIND       PRES   REMARKS
K.C. INTL      HVY RAIN  52  50  93 NE18      29.77F FOG
K.C. DOWNTOWN  LGT RAIN  54  51  90 NE16      29.75F
LEES SUMMIT    CLOUDY    55  54  96 E12       29.77F
OLATHE - IXD   LGT RAIN  56  54  93 NE12G17   29.73F
OLATHE - OJC   LGT RAIN  55  53  93 E8G29     29.74F
LAWRENCE       LGT RAIN  53  51  93 NE10      29.75S FOG

$$

MOZ001>008-011>017-020>025-030>033-038>040-044>046-053-054-300600-
...NORTHERN AND CENTRAL MISSOURI...

CITY           SKY/WX    TMP DP  RH WIND       PRES   REMARKS
ST. JOSEPH     RAIN      50  48  93 E20G28    29.81F FOG
MOSBY            N/A     52  52 100 NE12G21   29.80F
WARRENSBURG    LGT RAIN  55  54  94 E13G18    29.76F
WHITEMAN AFB   LGT RAIN  56  56 100 SE15G30   29.78R
CLINTON        LGT RAIN  57  57 100 SE17G24   29.81R
SEDALIA        LGT RAIN  57  55  93 SE22G31   29.81F
WARSAW         NOT AVBL
CHILLICOTHE      N/A     52  48  86 E7        29.88R
KIRKSVILLE     CLOUDY    50  46  86 NE14G21   29.93S

$$

MOZ041-047>049-056>058-063>065-088>090-097-300600-
...EASTERN AND SOUTHERN MISSOURI...

CITY           SKY/WX    TMP DP  RH WIND       PRES   REMARKS
ST. LOUIS INTL TSTM      61  55  82 E13       29.93F
SPIRIT OF STL  TSTM      57  57 100 E9        29.91F FOG
COLUMBIA       LGT RAIN  57  55  93 E12       29.87F
JEFFERSON CITY LGT RAIN  57  55  93 SE9       29.88F
ROLLA          TSTM      56  55  97 E12       29.87F FOG
OSAGE BEACH    CLOUDY    57  48  72 E8        29.86F
SPRINGFIELD    RAIN      60  58  92 E6        29.80F
JOPLIN         CLOUDY    59  58  96 E16G26    29.66F
WEST PLAINS    LGT RAIN  60  57  89 SE8       29.87S

$$

IAZ060-094-KSZ022-034>040-054-083-096-NEZ052-066-093-300600-
...KANSAS...SOUTHEAST NEBRASKA AND IOWA...

CITY           SKY/WX    TMP DP  RH WIND       PRES   REMARKS
TOPEKA         LGT RAIN  53  50  89 E18G26    29.72F
MANHATTAN      LGT RAIN  52  48  86 E16G23    29.71F
EMPORIA        LGT RAIN  54  53  97 E12       29.67F
CHANUTE        LGT RAIN  61  57  87 SE10      29.67F
WICHITA        CLOUDY    56  53  90 NE7       29.66F
OMAHA          LGT RAIN  47  43  86 NE16G22   29.91F
LINCOLN        LGT RAIN  47  42  83 E17       29.88F
FALLS CITY     CLOUDY    49  46  90 E17G28    29.79F
LAMONI         CLOUDY    47  44  90 E14G22    29.91S
DES MOINES     LGT RAIN  48  42  80 E15       30.00F

$$





USA.gov is the U.S. government's official web portal to all federal, state and local government web resources and services.